TimeMDT,TemperatureF,Dew PointF,Humidity,Sea Level PressureIn,VisibilityMPH,Wind Direction,Wind SpeedMPH,Gust SpeedMPH,PrecipitationIn,Events,Conditions,WindDirDegrees,DateUTC
12:53 AM,32.0,30.9,96,30.07,7.0,SW,5.8,-,N/A,,Overcast,230,2013-04-03 06:53:00
1:53 AM,33.1,32.0,96,30.06,8.0,South,4.6,-,N/A,,Overcast,180,2013-04-03 07:53:00
2:29 AM,33.8,32.0,93,30.08,8.0,SSW,5.8,-,N/A,,Overcast,210,2013-04-03 08:29:00
2:44 AM,33.8,32.0,93,30.08,6.0,SW,5.8,-,N/A,,Overcast,220,2013-04-03 08:44:00
2:53 AM,33.1,32.0,96,30.04,6.0,WSW,4.6,-,N/A,,Overcast,250,2013-04-03 08:53:00
3:14 AM,33.8,32.0,93,30.08,9.0,Calm,Calm,-,N/A,,Overcast,0,2013-04-03 09:14:00
3:53 AM,33.1,32.0,96,30.04,10.0,South,3.5,-,N/A,,Overcast,180,2013-04-03 09:53:00
4:04 AM,33.8,32.0,93,30.08,10.0,SSW,4.6,-,N/A,,Overcast,210,2013-04-03 10:04:00
4:18 AM,33.8,32.0,93,30.08,9.0,SW,6.9,-,N/A,,Overcast,220,2013-04-03 10:18:00
4:43 AM,33.8,32.0,93,30.09,10.0,WSW,3.5,-,N/A,,Overcast,250,2013-04-03 10:43:00
4:53 AM,34.0,32.0,92,30.05,10.0,Calm,Calm,-,N/A,,Overcast,0,2013-04-03 10:53:00
5:50 AM,33.8,30.2,87,30.09,10.0,Calm,Calm,-,N/A,,Overcast,0,2013-04-03 11:50:00
5:53 AM,33.1,30.9,92,30.05,10.0,Calm,Calm,-,N/A,,Overcast,0,2013-04-03 11:53:00
6:27 AM,33.8,30.2,87,30.09,10.0,Calm,Calm,-,N/A,,Overcast,0,2013-04-03 12:27:00
6:53 AM,34.0,30.9,89,30.06,10.0,Calm,Calm,-,N/A,,Overcast,0,2013-04-03 12:53:00
7:18 AM,35.6,32.0,87,30.11,10.0,Calm,Calm,-,N/A,,Overcast,0,2013-04-03 13:18:00
7:50 AM,35.6,32.0,87,30.12,8.0,NE,4.6,-,0.00,,Overcast,50,2013-04-03 13:50:00
7:53 AM,36.0,32.0,86,30.09,8.0,NE,4.6,-,0.00,,Overcast,50,2013-04-03 13:53:00
8:39 AM,35.6,33.8,93,30.13,2.5,NE,4.6,-,0.00,Snow,Light Snow,40,2013-04-03 14:39:00
8:50 AM,35.6,33.8,93,30.13,1.8,NE,4.6,-,0.01,Snow,Light Snow,40,2013-04-03 14:50:00
8:53 AM,36.0,33.1,89,30.10,2.0,NE,4.6,-,0.01,Snow,Light Snow,40,2013-04-03 14:53:00
9:02 AM,35.6,33.8,93,30.13,3.0,NE,3.5,-,0.01,Snow,Light Snow,40,2013-04-03 15:02:00
9:10 AM,35.6,33.8,93,30.13,5.0,NE,4.6,-,0.01,Snow,Light Snow,40,2013-04-03 15:10:00
9:37 AM,37.4,33.8,87,30.14,10.0,Calm,Calm,-,0.01,Rain,Light Rain,0,2013-04-03 15:37:00
9:53 AM,39.0,34.0,82,30.10,10.0,Calm,Calm,-,0.01,,Overcast,0,2013-04-03 15:53:00
10:05 AM,39.2,35.6,87,30.13,10.0,South,3.5,-,N/A,,Overcast,180,2013-04-03 16:05:00
10:29 AM,39.2,33.8,81,30.13,10.0,SSE,4.6,-,N/A,,Overcast,160,2013-04-03 16:29:00
10:53 AM,41.0,33.1,73,30.09,10.0,SW,4.6,-,N/A,,Overcast,220,2013-04-03 16:53:00
11:09 AM,42.8,33.8,70,30.13,10.0,Variable,3.5,-,N/A,,Overcast,0,2013-04-03 17:09:00
11:53 AM,43.0,33.1,68,30.09,10.0,SW,4.6,-,N/A,,Overcast,230,2013-04-03 17:53:00
12:53 PM,48.0,26.1,42,30.04,10.0,Calm,Calm,-,N/A,,Overcast,0,2013-04-03 18:53:00
1:53 PM,50.0,27.0,41,30.01,10.0,WSW,6.9,-,N/A,,Overcast,240,2013-04-03 19:53:00
2:53 PM,53.1,26.1,35,30.00,10.0,North,9.2,19.6,N/A,,Mostly Cloudy,10,2013-04-03 20:53:00
3:53 PM,53.1,24.1,32,29.99,10.0,North,11.5,18.4,N/A,,Mostly Cloudy,360,2013-04-03 21:53:00
4:53 PM,57.0,25.0,29,29.96,10.0,NNE,13.8,-,N/A,,Partly Cloudy,30,2013-04-03 22:53:00
5:53 PM,53.1,26.1,35,30.00,10.0,North,10.4,-,N/A,,Clear,10,2013-04-03 23:53:00
6:53 PM,51.1,26.1,38,30.02,10.0,North,8.1,-,N/A,,Clear,360,2013-04-04 00:53:00
7:53 PM,45.0,25.0,46,30.06,10.0,NNE,4.6,-,N/A,,Clear,30,2013-04-04 01:53:00
8:53 PM,37.9,25.0,60,30.12,10.0,NNE,3.5,-,N/A,,Clear,20,2013-04-04 02:53:00
9:53 PM,36.0,25.0,64,30.14,10.0,North,10.4,-,N/A,,Clear,360,2013-04-04 03:53:00
10:53 PM,36.0,25.0,64,30.13,10.0,Calm,Calm,-,N/A,,Clear,0,2013-04-04 04:53:00
11:53 PM,33.1,26.1,75,30.15,10.0,SW,4.6,-,N/A,,Clear,230,2013-04-04 05:53:00